EZY61HY EGAA-LEIB

Flight info

Callsign EZY61HY
Flight time 2h 43m
Altitude 35000
Route LISBO DCT RINGA DCT BABGU DCT ETIGA DCT INKOB Q39 NOMSU UQ4 WAL L151 KIDLI UN859 LGL/N0443F370 UN859 SOPIL DCT BALAN DCT EVPOK DCT NARAK DCT GAI DCT LOMRA DCT ROCAN/N0421F310 DCT PUMAL N859 BCN Z174 CORDA
Aircraft A320/M-SDE3FGHIRWY/LB1

Departure

Time 2026-05-05 21:41
Airport Belfast International Airport (EGAA)

Arrival

Time 2026-05-06 00:25
Airport Ibiza Airport (LEIB)
Time Latitude Longitude Altitude Speed Heading
2026-05-05 21:05 54.66078 -6.21645 272 ft 0 kts 335°
2026-05-05 21:30 54.66077 -6.21645 272 ft 1 kts 335°
2026-05-05 21:31 54.66056 -6.21628 276 ft 4 kts 335°
2026-05-05 21:31 54.66032 -6.21609 276 ft 4 kts 335°
2026-05-05 21:31 54.66007 -6.21589 275 ft 4 kts 335°
2026-05-05 21:31 54.65985 -6.21571 276 ft 2 kts 335°
2026-05-05 21:32 54.65965 -6.21547 276 ft 4 kts 299°
2026-05-05 21:32 54.65959 -6.21505 277 ft 4 kts 263°
2026-05-05 21:32 54.65965 -6.21460 276 ft 4 kts 248°
2026-05-05 21:32 54.65975 -6.21421 276 ft 4 kts 245°
2026-05-05 21:33 54.65987 -6.21378 274 ft 4 kts 245°
2026-05-05 21:33 54.65998 -6.21336 275 ft 4 kts 245°
2026-05-05 21:33 54.66002 -6.21322 272 ft 0 kts 245°
2026-05-05 21:37 54.65989 -6.21371 276 ft 9 kts 245°
2026-05-05 21:37 54.65951 -6.21509 274 ft 17 kts 245°
2026-05-05 21:37 54.65899 -6.21703 273 ft 17 kts 245°
2026-05-05 21:37 54.65850 -6.21885 275 ft 16 kts 245°
2026-05-05 21:38 54.65803 -6.22059 274 ft 16 kts 245°
2026-05-05 21:38 54.65771 -6.22236 272 ft 14 kts 261°
2026-05-05 21:38 54.65759 -6.22408 272 ft 17 kts 263°
2026-05-05 21:38 54.65745 -6.22635 272 ft 20 kts 266°
2026-05-05 21:39 54.65719 -6.22871 273 ft 20 kts 243°
2026-05-05 21:39 54.65637 -6.23072 272 ft 21 kts 233°
2026-05-05 21:39 54.65562 -6.23249 272 ft 17 kts 234°
2026-05-05 21:39 54.65483 -6.23355 272 ft 14 kts 201°
2026-05-05 21:40 54.65400 -6.23409 272 ft 12 kts 195°
2026-05-05 21:40 54.65332 -6.23373 272 ft 9 kts 155°
2026-05-05 21:40 54.65282 -6.23337 272 ft 5 kts 136°
2026-05-05 21:40 54.65289 -6.23292 272 ft 5 kts 66°
2026-05-05 21:41 54.65366 -6.23005 272 ft 60 kts 65°
2026-05-05 21:41 54.65640 -6.21989 272 ft 124 kts 65°
2026-05-05 21:41 54.66073 -6.20384 368 ft 163 kts 65°
2026-05-05 21:41 54.66532 -6.18632 1114 ft 159 kts 63°
2026-05-05 21:42 54.66982 -6.16855 1785 ft 165 kts 63°
2026-05-05 21:42 54.67442 -6.14904 2078 ft 186 kts 64°
2026-05-05 21:42 54.67818 -6.12731 2624 ft 194 kts 85°
2026-05-05 21:42 54.67468 -6.10454 3259 ft 203 kts 119°
2026-05-05 21:43 54.66566 -6.08575 3899 ft 204 kts 129°
2026-05-05 21:43 54.65600 -6.06702 4339 ft 215 kts 129°
2026-05-05 21:43 54.64549 -6.04663 4672 ft 236 kts 130°
2026-05-05 21:43 54.63463 -6.02560 5426 ft 239 kts 130°
2026-05-05 21:44 54.62347 -6.00402 6199 ft 243 kts 131°
2026-05-05 21:44 54.61210 -5.98203 6908 ft 249 kts 131°
2026-05-05 21:44 54.60038 -5.95935 7537 ft 258 kts 131°
2026-05-05 21:44 54.58817 -5.93570 8107 ft 270 kts 132°
2026-05-05 21:45 54.57540 -5.91102 8690 ft 281 kts 132°
2026-05-05 21:45 54.56203 -5.88574 9284 ft 290 kts 135°
2026-05-05 21:45 54.54656 -5.86282 9971 ft 296 kts 146°
2026-05-05 21:45 54.52923 -5.84303 10620 ft 301 kts 148°
2026-05-05 21:46 54.51146 -5.82352 11289 ft 305 kts 149°
2026-05-05 21:46 54.49345 -5.80376 11980 ft 309 kts 149°
2026-05-05 21:46 54.47647 -5.78076 12640 ft 315 kts 131°
2026-05-05 21:46 54.46301 -5.75078 13311 ft 319 kts 127°
2026-05-05 21:47 54.44978 -5.72000 13976 ft 322 kts 127°
2026-05-05 21:47 54.43645 -5.68876 14558 ft 326 kts 127°
2026-05-05 21:47 54.42302 -5.65727 15173 ft 329 kts 127°
2026-05-05 21:47 54.40938 -5.62544 15744 ft 333 kts 127°
2026-05-05 21:48 54.39550 -5.59309 16231 ft 340 kts 127°
2026-05-05 21:48 54.38125 -5.55997 16598 ft 351 kts 127°
2026-05-05 21:48 54.36644 -5.52570 16816 ft 365 kts 127°
2026-05-05 21:48 54.35101 -5.49010 17043 ft 379 kts 128°
2026-05-05 21:49 54.33536 -5.45406 17521 ft 384 kts 128°
2026-05-05 21:49 54.31935 -5.41721 18063 ft 387 kts 128°
2026-05-05 21:49 54.30319 -5.38004 18577 ft 391 kts 128°
2026-05-05 21:49 54.28688 -5.34262 19073 ft 393 kts 128°
2026-05-05 21:50 54.27048 -5.30500 19554 ft 396 kts 128°
2026-05-05 21:50 54.25397 -5.26707 20034 ft 399 kts 128°
2026-05-05 21:50 54.23734 -5.22890 20510 ft 401 kts 128°
2026-05-05 21:50 54.22060 -5.19051 20977 ft 404 kts 128°
2026-05-05 21:51 54.20374 -5.15191 21434 ft 407 kts 128°
2026-05-05 21:51 54.18675 -5.11315 21887 ft 409 kts 128°
2026-05-05 21:51 54.16962 -5.07415 22324 ft 412 kts 128°
2026-05-05 21:51 54.15235 -5.03496 22772 ft 414 kts 128°
2026-05-05 21:52 54.11743 -4.95594 23603 ft 420 kts 128°
2026-05-05 21:52 54.09979 -4.91607 23949 ft 422 kts 128°
2026-05-05 21:52 54.08205 -4.87599 24302 ft 425 kts 128°
2026-05-05 21:53 54.06419 -4.83576 24653 ft 427 kts 128°
2026-05-05 21:53 54.04623 -4.79536 24984 ft 429 kts 128°
2026-05-05 21:53 54.02817 -4.75478 25347 ft 431 kts 128°
2026-05-05 21:53 54.01006 -4.71405 25704 ft 432 kts 129°
2026-05-05 21:54 53.99193 -4.67331 26083 ft 434 kts 129°
2026-05-05 21:54 53.97369 -4.63235 26419 ft 436 kts 129°
2026-05-05 21:54 53.95559 -4.59181 26737 ft 438 kts 129°
2026-05-05 21:54 53.93713 -4.55059 27062 ft 440 kts 129°
2026-05-05 21:55 53.91855 -4.50923 27376 ft 442 kts 129°
2026-05-05 21:55 53.89976 -4.46781 27664 ft 444 kts 130°
2026-05-05 21:55 53.88013 -4.42751 27986 ft 445 kts 133°
2026-05-05 21:55 53.85960 -4.38815 28293 ft 446 kts 134°
2026-05-05 21:56 53.83848 -4.34930 28604 ft 448 kts 135°
2026-05-05 21:56 53.81719 -4.31068 28907 ft 450 kts 135°
2026-05-05 21:56 53.79586 -4.27175 29203 ft 452 kts 134°
2026-05-05 21:56 53.77458 -4.23240 29493 ft 454 kts 134°
2026-05-05 21:57 53.75337 -4.19269 29775 ft 456 kts 134°
2026-05-05 21:57 53.73221 -4.15275 30047 ft 458 kts 134°
2026-05-05 21:57 53.71093 -4.11250 30281 ft 460 kts 134°
2026-05-05 21:57 53.68958 -4.07221 30504 ft 461 kts 134°
2026-05-05 21:58 53.66815 -4.03200 30713 ft 463 kts 134°
2026-05-05 21:58 53.64661 -3.99174 31012 ft 462 kts 134°
2026-05-05 21:58 53.62508 -3.95158 31345 ft 461 kts 134°
2026-05-05 21:58 53.60388 -3.91213 31652 ft 460 kts 134°
2026-05-05 21:59 53.58242 -3.87227 31967 ft 459 kts 134°
2026-05-05 21:59 53.56098 -3.83254 32280 ft 458 kts 134°
2026-05-05 21:59 53.53956 -3.79294 32600 ft 457 kts 134°
2026-05-05 21:59 53.51822 -3.75352 32909 ft 456 kts 134°
2026-05-05 22:00 53.49687 -3.71411 33221 ft 456 kts 134°
2026-05-05 22:00 53.47550 -3.67471 33529 ft 455 kts 134°
2026-05-05 22:00 53.45418 -3.63553 33841 ft 454 kts 134°
2026-05-05 22:00 53.43292 -3.59649 34136 ft 453 kts 134°
2026-05-05 22:01 53.41163 -3.55751 34381 ft 453 kts 134°
2026-05-05 22:01 53.39036 -3.51855 34627 ft 453 kts 134°
2026-05-05 22:01 53.36909 -3.47965 34835 ft 453 kts 134°
2026-05-05 22:01 53.34785 -3.44086 35012 ft 453 kts 134°
2026-05-05 22:02 53.32668 -3.40219 35063 ft 449 kts 134°
2026-05-05 22:02 53.28451 -3.32546 35061 ft 447 kts 134°
2026-05-05 22:03 53.24245 -3.24924 35063 ft 446 kts 135°
2026-05-05 22:03 53.20030 -3.17317 35052 ft 446 kts 135°
2026-05-05 22:04 53.15809 -3.09727 35062 ft 446 kts 135°
2026-05-05 22:04 53.11586 -3.02160 35055 ft 446 kts 135°
2026-05-05 22:05 53.07360 -2.94602 35054 ft 446 kts 135°
2026-05-05 22:05 53.03164 -2.87106 35054 ft 446 kts 135°
2026-05-05 22:06 52.98941 -2.79567 35040 ft 446 kts 135°
2026-05-05 22:06 52.94700 -2.72046 35050 ft 446 kts 135°
2026-05-05 22:07 52.90461 -2.64553 35056 ft 446 kts 135°
2026-05-05 22:07 52.86184 -2.57120 35058 ft 444 kts 141°
2026-05-05 22:08 52.81072 -2.51542 35057 ft 441 kts 150°
2026-05-05 22:08 52.75814 -2.46328 35051 ft 440 kts 150°
2026-05-05 22:09 52.70562 -2.41148 35037 ft 440 kts 150°
2026-05-05 22:09 52.65308 -2.35960 35035 ft 440 kts 150°
2026-05-05 22:10 52.60055 -2.30772 35035 ft 440 kts 150°
2026-05-05 22:10 52.54804 -2.25599 35034 ft 440 kts 150°
2026-05-05 22:11 52.49543 -2.20447 35027 ft 440 kts 150°
2026-05-05 22:11 52.44272 -2.15304 35019 ft 441 kts 150°
2026-05-05 22:12 52.38995 -2.10169 35019 ft 442 kts 150°
2026-05-05 22:12 52.33745 -2.05063 35020 ft 442 kts 150°
2026-05-05 22:13 52.28450 -1.99920 35018 ft 443 kts 150°
2026-05-05 22:13 52.24002 -1.95624 35018 ft 443 kts 150°
2026-05-05 22:14 52.17849 -1.89707 35046 ft 441 kts 150°
2026-05-05 22:14 52.12572 -1.84633 35045 ft 440 kts 150°
2026-05-05 22:15 52.09938 -1.82106 35044 ft 440 kts 151°
2026-05-05 22:15 52.02610 -1.75098 35028 ft 439 kts 151°
2026-05-05 22:16 51.97342 -1.70092 35025 ft 438 kts 151°
2026-05-05 22:16 51.92086 -1.65101 35021 ft 438 kts 151°
2026-05-05 22:17 51.86834 -1.60117 35015 ft 437 kts 151°
2026-05-05 22:17 51.81576 -1.55150 35003 ft 437 kts 151°
2026-05-05 22:18 51.76361 -1.50225 35006 ft 437 kts 151°
2026-05-05 22:18 51.71119 -1.45298 35008 ft 436 kts 152°
2026-05-05 22:19 51.65883 -1.40391 35023 ft 434 kts 152°
2026-05-05 22:19 51.60680 -1.35528 35022 ft 431 kts 152°
2026-05-05 22:20 51.55497 -1.30698 35018 ft 430 kts 151°
2026-05-05 22:20 51.50332 -1.25888 35021 ft 428 kts 151°
2026-05-05 22:21 51.45190 -1.21115 35018 ft 427 kts 151°
2026-05-05 22:21 51.40052 -1.16352 35005 ft 426 kts 152°
2026-05-05 22:22 51.34919 -1.11609 35000 ft 425 kts 152°
2026-05-05 22:22 51.29793 -1.06895 34969 ft 425 kts 151°
2026-05-05 22:23 51.24662 -1.02187 34961 ft 425 kts 151°
2026-05-05 22:23 51.19561 -0.97519 34959 ft 425 kts 151°
2026-05-05 22:24 51.14426 -0.92823 34960 ft 425 kts 151°
2026-05-05 22:24 51.09301 -0.88142 34964 ft 425 kts 151°
2026-05-05 22:25 51.04172 -0.83475 34963 ft 424 kts 151°
2026-05-05 22:25 50.99039 -0.78839 34966 ft 424 kts 151°
2026-05-05 22:26 50.93909 -0.74212 34960 ft 424 kts 151°
2026-05-05 22:26 50.88778 -0.69583 34961 ft 424 kts 151°
2026-05-05 22:27 50.83650 -0.64974 34962 ft 424 kts 151°
2026-05-05 22:27 50.78515 -0.60371 34962 ft 424 kts 151°
2026-05-05 22:28 50.73379 -0.55763 34960 ft 424 kts 151°
2026-05-05 22:28 50.68247 -0.51178 34962 ft 424 kts 151°
2026-05-05 22:29 50.63101 -0.46606 34959 ft 424 kts 151°
2026-05-05 22:29 50.57992 -0.42072 34961 ft 424 kts 151°
2026-05-05 22:30 50.52858 -0.37519 34960 ft 424 kts 151°
2026-05-05 22:30 50.47715 -0.32985 34958 ft 424 kts 151°
2026-05-05 22:31 50.42569 -0.28449 34958 ft 424 kts 151°
2026-05-05 22:31 50.37423 -0.23917 34962 ft 424 kts 151°
2026-05-05 22:32 50.32278 -0.19405 34959 ft 424 kts 151°
2026-05-05 22:32 50.27135 -0.14898 34959 ft 423 kts 151°
2026-05-05 22:33 50.21994 -0.10411 34958 ft 423 kts 151°
2026-05-05 22:33 50.16851 -0.05962 34959 ft 423 kts 151°
2026-05-05 22:34 50.11702 -0.01499 34958 ft 423 kts 153°
2026-05-05 22:34 50.06172 0.01515 34952 ft 422 kts 165°
2026-05-05 22:35 50.00483 0.03746 34969 ft 421 kts 165°
2026-05-05 22:35 49.94815 0.05988 34973 ft 420 kts 165°
2026-05-05 22:36 49.89157 0.08206 34964 ft 419 kts 165°
2026-05-05 22:36 49.83503 0.10404 34945 ft 420 kts 165°
2026-05-05 22:37 49.77841 0.12624 34949 ft 420 kts 165°
2026-05-05 22:37 49.72183 0.14830 34958 ft 419 kts 165°
2026-05-05 22:38 49.66561 0.17021 34951 ft 420 kts 165°
2026-05-05 22:38 49.60908 0.19300 34945 ft 420 kts 164°
2026-05-05 22:39 49.55253 0.21595 34947 ft 420 kts 164°
2026-05-05 22:39 49.49600 0.23869 34951 ft 420 kts 165°
2026-05-05 22:40 49.43925 0.26145 34908 ft 422 kts 165°
2026-05-05 22:40 49.38237 0.28413 34903 ft 423 kts 165°
2026-05-05 22:41 49.32537 0.30683 34906 ft 423 kts 165°
2026-05-05 22:41 49.26849 0.33000 34910 ft 424 kts 164°
2026-05-05 22:42 49.21161 0.35419 34917 ft 424 kts 163°
2026-05-05 22:42 49.15503 0.37826 34920 ft 425 kts 163°
2026-05-05 22:43 49.09765 0.40245 34919 ft 426 kts 164°
2026-05-05 22:43 49.04086 0.42615 34931 ft 426 kts 163°
2026-05-05 22:44 48.98366 0.44998 34928 ft 426 kts 164°
2026-05-05 22:44 48.92651 0.47384 34927 ft 426 kts 163°
2026-05-05 22:45 48.86938 0.49756 34931 ft 426 kts 164°
2026-05-05 22:45 48.81226 0.52122 34933 ft 425 kts 164°
2026-05-05 22:46 48.75513 0.54465 34927 ft 425 kts 164°
2026-05-05 22:46 48.69779 0.56698 34916 ft 425 kts 165°
2026-05-05 22:47 48.64029 0.58917 35021 ft 428 kts 165°
2026-05-05 22:47 48.61138 0.60041 35211 ft 429 kts 165°
2026-05-05 22:47 48.58248 0.61171 35442 ft 429 kts 165°
2026-05-05 22:47 48.55393 0.62290 35622 ft 429 kts 165°
2026-05-05 22:48 48.52503 0.63409 35821 ft 430 kts 166°
2026-05-05 22:48 48.49574 0.64383 35947 ft 432 kts 168°
2026-05-05 22:48 48.46620 0.65189 36173 ft 431 kts 170°
2026-05-05 22:48 48.43659 0.65891 36366 ft 431 kts 171°
2026-05-05 22:49 48.40706 0.66553 36610 ft 430 kts 171°
2026-05-05 22:49 48.37747 0.67226 36746 ft 430 kts 171°
2026-05-05 22:49 48.34780 0.67934 36896 ft 432 kts 171°
2026-05-05 22:50 48.28839 0.69447 36910 ft 433 kts 170°
2026-05-05 22:50 48.22917 0.70999 36908 ft 431 kts 170°
2026-05-05 22:51 48.16997 0.72523 36902 ft 432 kts 171°
2026-05-05 22:51 48.11051 0.74028 36904 ft 433 kts 171°
2026-05-05 22:52 48.05114 0.75524 36908 ft 432 kts 171°
2026-05-05 22:52 47.99190 0.77020 36906 ft 432 kts 171°
2026-05-05 22:53 47.93254 0.78518 36892 ft 433 kts 171°
2026-05-05 22:53 47.87350 0.79999 36899 ft 433 kts 171°
2026-05-05 22:54 47.81404 0.81486 36901 ft 433 kts 171°
2026-05-05 22:54 47.75458 0.82975 36893 ft 434 kts 171°
2026-05-05 22:55 47.69502 0.84462 36885 ft 434 kts 171°
2026-05-05 22:55 47.63542 0.85950 36886 ft 435 kts 171°
2026-05-05 22:56 47.57575 0.87437 36885 ft 435 kts 171°
2026-05-05 22:56 47.51612 0.88915 36884 ft 435 kts 171°
2026-05-05 22:57 47.46652 0.90140 36883 ft 435 kts 171°
2026-05-05 22:57 47.40675 0.91620 36886 ft 436 kts 171°
2026-05-05 22:58 47.34695 0.93095 36885 ft 436 kts 171°
2026-05-05 22:58 47.28712 0.94569 36881 ft 436 kts 171°
2026-05-05 22:59 47.22727 0.96033 36883 ft 436 kts 171°
2026-05-05 22:59 47.16747 0.97494 36882 ft 436 kts 171°
2026-05-05 23:00 47.07816 0.99680 36899 ft 435 kts 171°
2026-05-05 23:00 47.01840 1.01140 36893 ft 435 kts 171°
2026-05-05 23:01 46.95863 1.02585 36883 ft 435 kts 172°
2026-05-05 23:01 46.89891 1.04023 36884 ft 435 kts 172°
2026-05-05 23:02 46.83928 1.05468 36883 ft 435 kts 172°
2026-05-05 23:02 46.77961 1.06918 36885 ft 435 kts 172°
2026-05-05 23:03 46.71995 1.08356 36886 ft 434 kts 172°
2026-05-05 23:03 46.66029 1.09782 36885 ft 434 kts 172°
2026-05-05 23:04 46.60104 1.11199 36885 ft 434 kts 172°
2026-05-05 23:04 46.54147 1.12622 36886 ft 434 kts 172°
2026-05-05 23:05 46.48188 1.14052 36892 ft 434 kts 172°
2026-05-05 23:05 46.42230 1.15473 36892 ft 434 kts 172°
2026-05-05 23:06 46.36275 1.16879 36894 ft 433 kts 172°
2026-05-05 23:06 46.30321 1.18290 36896 ft 433 kts 172°
2026-05-05 23:07 46.24381 1.19698 36886 ft 433 kts 172°
2026-05-05 23:07 46.18438 1.21100 36905 ft 432 kts 172°
2026-05-05 23:08 46.12502 1.22495 36908 ft 432 kts 172°
2026-05-05 23:08 46.06607 1.23880 36902 ft 432 kts 172°
2026-05-05 23:09 46.00674 1.25277 36909 ft 432 kts 172°
2026-05-05 23:09 45.94744 1.26668 36912 ft 432 kts 172°
2026-05-05 23:10 45.88808 1.28048 36909 ft 432 kts 172°
2026-05-05 23:10 45.82873 1.29427 36915 ft 432 kts 172°
2026-05-05 23:11 45.76941 1.30810 36919 ft 432 kts 172°
2026-05-05 23:11 45.71003 1.32187 36922 ft 432 kts 172°
2026-05-05 23:12 45.65068 1.33547 36915 ft 432 kts 172°
2026-05-05 23:12 45.59170 1.34906 36918 ft 432 kts 172°
2026-05-05 23:13 45.53239 1.36280 36919 ft 432 kts 172°
2026-05-05 23:13 45.47300 1.37660 36913 ft 432 kts 172°
2026-05-05 23:14 45.41395 1.39368 36925 ft 433 kts 169°
2026-05-05 23:14 45.35525 1.41369 36934 ft 434 kts 168°
2026-05-05 23:15 45.29652 1.43358 36938 ft 434 kts 169°
2026-05-05 23:15 45.23764 1.45257 36938 ft 434 kts 169°
2026-05-05 23:16 45.17870 1.47115 36940 ft 434 kts 169°
2026-05-05 23:16 45.11976 1.48986 36941 ft 434 kts 169°
2026-05-05 23:17 45.06089 1.50864 36945 ft 434 kts 169°
2026-05-05 23:17 45.00194 1.52742 36948 ft 434 kts 169°
2026-05-05 23:18 44.94339 1.54589 36943 ft 434 kts 170°
2026-05-05 23:18 44.88454 1.56445 36952 ft 433 kts 170°
2026-05-05 23:19 44.82576 1.58303 36953 ft 433 kts 170°
2026-05-05 23:19 44.76705 1.60155 36956 ft 433 kts 170°
2026-05-05 23:20 44.70829 1.62009 36963 ft 432 kts 170°
2026-05-05 23:20 44.64956 1.63857 36966 ft 432 kts 170°
2026-05-05 23:21 44.59080 1.65688 36958 ft 432 kts 171°
2026-05-05 23:21 44.53204 1.67518 36960 ft 433 kts 171°
2026-05-05 23:22 44.47333 1.69347 36958 ft 433 kts 170°
2026-05-05 23:22 44.41455 1.71183 36967 ft 433 kts 171°
2026-05-05 23:23 44.35575 1.73010 36954 ft 433 kts 171°
2026-05-05 23:23 44.29690 1.74833 36961 ft 433 kts 171°
2026-05-05 23:24 44.23772 1.76350 36964 ft 432 kts 174°
2026-05-05 23:24 44.17869 1.77555 36964 ft 432 kts 175°
2026-05-05 23:25 44.11923 1.78768 36970 ft 432 kts 175°
2026-05-05 23:25 44.05986 1.80059 36975 ft 432 kts 174°
2026-05-05 23:26 44.00044 1.81387 36966 ft 432 kts 175°
2026-05-05 23:26 43.94100 1.82654 36979 ft 431 kts 177°
2026-05-05 23:27 43.88139 1.83357 36986 ft 429 kts 180°
2026-05-05 23:27 43.82178 1.83775 36989 ft 429 kts 181°
2026-05-05 23:28 43.76257 1.84250 36978 ft 429 kts 180°
2026-05-05 23:28 43.70305 1.84831 36995 ft 429 kts 180°
2026-05-05 23:29 43.64346 1.85435 36990 ft 429 kts 180°
2026-05-05 23:29 43.58391 1.86015 36981 ft 429 kts 180°
2026-05-05 23:30 43.52441 1.86589 36993 ft 429 kts 180°
2026-05-05 23:30 43.46488 1.87152 36999 ft 429 kts 180°
2026-05-05 23:31 43.40537 1.87719 36984 ft 429 kts 180°
2026-05-05 23:31 43.34594 1.88286 36989 ft 428 kts 180°
2026-05-05 23:32 43.28682 1.88853 36991 ft 428 kts 180°
2026-05-05 23:32 43.22733 1.89424 36998 ft 428 kts 180°
2026-05-05 23:33 43.16784 1.89993 36992 ft 428 kts 181°
2026-05-05 23:33 43.10837 1.90557 36997 ft 428 kts 181°
2026-05-05 23:34 43.04890 1.91114 36988 ft 428 kts 181°
2026-05-05 23:34 42.98959 1.91681 36986 ft 427 kts 181°
2026-05-05 23:35 42.93038 1.92246 37008 ft 426 kts 181°
2026-05-05 23:35 42.87128 1.92807 37014 ft 425 kts 181°
2026-05-05 23:36 42.81229 1.93362 37014 ft 425 kts 181°
2026-05-05 23:36 42.75370 1.93906 37012 ft 424 kts 181°
2026-05-05 23:37 42.69476 1.94450 37013 ft 425 kts 181°
2026-05-05 23:37 42.63580 1.95209 37003 ft 427 kts 177°
2026-05-05 23:38 42.57704 1.96450 36979 ft 428 kts 176°
2026-05-05 23:38 42.51832 1.97782 36989 ft 428 kts 176°
2026-05-05 23:39 42.45955 1.99012 36979 ft 427 kts 177°
2026-05-05 23:39 42.40085 2.00180 36977 ft 427 kts 177°
2026-05-05 23:40 42.34204 2.01240 36953 ft 424 kts 180°
2026-05-05 23:40 42.28332 2.01810 36960 ft 422 kts 183°
2026-05-05 23:41 42.22465 2.02229 36959 ft 422 kts 183°
2026-05-05 23:41 42.16643 2.02715 36942 ft 422 kts 182°
2026-05-05 23:42 42.10780 2.03278 36957 ft 422 kts 182°
2026-05-05 23:42 42.04917 2.03853 36958 ft 422 kts 182°
2026-05-05 23:43 41.99065 2.04415 36967 ft 422 kts 182°
2026-05-05 23:43 41.93207 2.04958 36948 ft 422 kts 183°
2026-05-05 23:44 41.87354 2.05505 36961 ft 421 kts 183°
2026-05-05 23:44 41.81508 2.06058 36955 ft 421 kts 183°
2026-05-05 23:45 41.75672 2.06606 36919 ft 421 kts 183°
2026-05-05 23:45 41.69874 2.07139 36943 ft 420 kts 183°
2026-05-05 23:46 41.64014 2.07682 36955 ft 419 kts 183°
2026-05-05 23:46 41.58233 2.08225 36958 ft 419 kts 183°
2026-05-05 23:47 41.52420 2.08768 36945 ft 418 kts 183°
2026-05-05 23:47 41.46613 2.09305 36950 ft 418 kts 183°
2026-05-05 23:48 41.40810 2.09841 36960 ft 418 kts 183°
2026-05-05 23:48 41.35014 2.10387 36959 ft 417 kts 183°
2026-05-05 23:49 41.29225 2.10949 36935 ft 418 kts 182°
2026-05-05 23:49 41.23426 2.11856 36953 ft 420 kts 180°
2026-05-05 23:50 41.17638 2.12931 36956 ft 420 kts 180°
2026-05-05 23:50 41.11848 2.13961 36954 ft 419 kts 180°
2026-05-05 23:51 41.06058 2.14935 36935 ft 419 kts 181°
2026-05-05 23:51 41.00272 2.15885 36936 ft 419 kts 181°
2026-05-05 23:52 40.94484 2.16837 36935 ft 419 kts 181°
2026-05-05 23:52 40.88724 2.17792 36914 ft 419 kts 181°
2026-05-05 23:53 40.82931 2.18754 36918 ft 419 kts 181°
2026-05-05 23:53 40.77138 2.19719 36929 ft 419 kts 181°
2026-05-05 23:54 40.71351 2.20676 36936 ft 419 kts 181°
2026-05-05 23:54 40.68454 2.21152 36807 ft 419 kts 181°
2026-05-05 23:54 40.65560 2.21629 36600 ft 419 kts 181°
2026-05-05 23:55 40.62671 2.22107 36353 ft 418 kts 181°
2026-05-05 23:55 40.59787 2.22583 36097 ft 417 kts 181°
2026-05-05 23:55 40.56913 2.23057 35844 ft 415 kts 181°
2026-05-05 23:55 40.54053 2.23530 35595 ft 413 kts 182°
2026-05-05 23:56 40.51214 2.24000 35329 ft 410 kts 182°
2026-05-05 23:56 40.49349 2.24308 35089 ft 407 kts 182°
2026-05-05 23:56 40.46558 2.24769 34719 ft 402 kts 182°
2026-05-05 23:56 40.43803 2.25224 34298 ft 396 kts 183°
2026-05-05 23:57 40.41082 2.25685 33913 ft 393 kts 182°
2026-05-05 23:57 40.38393 2.26260 33498 ft 391 kts 180°
2026-05-05 23:57 40.35732 2.26935 33050 ft 388 kts 179°
2026-05-05 23:57 40.33099 2.27656 32567 ft 385 kts 179°
2026-05-05 23:58 40.30486 2.28384 32087 ft 382 kts 179°
2026-05-05 23:58 40.27893 2.29098 31573 ft 379 kts 179°
2026-05-05 23:58 40.25317 2.29793 31102 ft 376 kts 179°
2026-05-05 23:58 40.22765 2.30464 30593 ft 373 kts 179°
2026-05-05 23:59 40.20223 2.31123 30112 ft 371 kts 179°
2026-05-05 23:59 40.17729 2.31764 29592 ft 369 kts 179°
2026-05-05 23:59 40.15216 2.32406 29068 ft 367 kts 179°
2026-05-05 23:59 40.12721 2.33045 28563 ft 364 kts 179°
2026-05-06 00:00 40.10249 2.33678 28077 ft 361 kts 179°
2026-05-06 00:00 40.07790 2.34308 27616 ft 359 kts 179°
2026-05-06 00:00 40.05342 2.34935 27163 ft 357 kts 179°
2026-05-06 00:00 40.02908 2.35560 26734 ft 355 kts 179°
2026-05-06 00:01 40.00488 2.36183 26282 ft 353 kts 179°
2026-05-06 00:01 39.98081 2.36801 25858 ft 352 kts 178°
2026-05-06 00:01 39.95684 2.37412 25441 ft 350 kts 178°
2026-05-06 00:01 39.93303 2.38020 25036 ft 348 kts 178°
2026-05-06 00:02 39.90927 2.38628 24654 ft 346 kts 178°
2026-05-06 00:02 39.88572 2.39230 24281 ft 345 kts 178°
2026-05-06 00:02 39.86224 2.39832 23907 ft 343 kts 178°
2026-05-06 00:02 39.83886 2.40433 23539 ft 342 kts 178°
2026-05-06 00:03 39.81560 2.41030 23107 ft 340 kts 178°
2026-05-06 00:03 39.79248 2.41620 22689 ft 337 kts 178°
2026-05-06 00:03 39.76953 2.42202 22274 ft 334 kts 179°
2026-05-06 00:03 39.74678 2.42473 21915 ft 324 kts 188°
2026-05-06 00:04 39.72462 2.42284 21551 ft 316 kts 194°
2026-05-06 00:04 39.70285 2.41946 21185 ft 314 kts 194°
2026-05-06 00:04 39.68148 2.41615 20843 ft 312 kts 194°
2026-05-06 00:04 39.65995 2.41282 20493 ft 311 kts 194°
2026-05-06 00:05 39.61729 2.40624 19844 ft 307 kts 194°
2026-05-06 00:05 39.59610 2.40295 19550 ft 305 kts 195°
2026-05-06 00:05 39.57570 2.39700 19260 ft 297 kts 205°
2026-05-06 00:06 39.55719 2.38605 18976 ft 289 kts 216°
2026-05-06 00:06 39.54107 2.37086 18675 ft 285 kts 225°
2026-05-06 00:06 39.52763 2.35216 18393 ft 283 kts 235°
2026-05-06 00:06 39.51669 2.33110 18082 ft 281 kts 238°
2026-05-06 00:07 39.50602 2.30994 17704 ft 280 kts 238°
2026-05-06 00:07 39.49539 2.28894 17345 ft 278 kts 238°
2026-05-06 00:07 39.48480 2.26807 16959 ft 277 kts 237°
2026-05-06 00:07 39.47425 2.24733 16587 ft 276 kts 237°
2026-05-06 00:08 39.46372 2.22664 16221 ft 275 kts 237°
2026-05-06 00:08 39.45324 2.20600 15865 ft 274 kts 237°
2026-05-06 00:08 39.44278 2.18544 15517 ft 273 kts 237°
2026-05-06 00:08 39.43234 2.16496 15176 ft 272 kts 237°
2026-05-06 00:09 39.42198 2.14459 14839 ft 271 kts 237°
2026-05-06 00:09 39.41165 2.12424 14520 ft 270 kts 237°
2026-05-06 00:09 39.40133 2.10397 14191 ft 269 kts 237°
2026-05-06 00:09 39.39100 2.08372 13859 ft 269 kts 237°
2026-05-06 00:10 39.38087 2.06391 13516 ft 268 kts 237°
2026-05-06 00:10 39.37062 2.04385 13152 ft 267 kts 237°
2026-05-06 00:10 39.36039 2.02384 12776 ft 266 kts 237°
2026-05-06 00:10 39.35017 2.00388 12406 ft 266 kts 237°
2026-05-06 00:11 39.33996 1.98395 12041 ft 266 kts 237°
2026-05-06 00:11 39.32976 1.96405 11645 ft 266 kts 237°
2026-05-06 00:11 39.31954 1.94411 11255 ft 266 kts 237°
2026-05-06 00:11 39.30933 1.92420 10880 ft 267 kts 237°
2026-05-06 00:12 39.29909 1.90424 10501 ft 267 kts 237°
2026-05-06 00:12 39.28884 1.88427 10136 ft 267 kts 238°
2026-05-06 00:12 39.27859 1.86426 9762 ft 267 kts 238°
2026-05-06 00:12 39.26839 1.84437 9438 ft 263 kts 238°
2026-05-06 00:13 39.25839 1.82489 9178 ft 258 kts 238°
2026-05-06 00:13 39.24854 1.80576 8917 ft 253 kts 238°
2026-05-06 00:13 39.23887 1.78704 8657 ft 248 kts 238°
2026-05-06 00:13 39.22937 1.76868 8402 ft 244 kts 238°
2026-05-06 00:14 39.22005 1.75068 8163 ft 238 kts 238°
2026-05-06 00:14 39.21099 1.73316 7970 ft 232 kts 238°
2026-05-06 00:14 39.20266 1.71589 7840 ft 222 kts 244°
2026-05-06 00:14 39.19569 1.69859 7695 ft 214 kts 244°
2026-05-06 00:15 39.18880 1.68175 7459 ft 211 kts 243°
2026-05-06 00:15 39.18183 1.66520 7188 ft 210 kts 238°
2026-05-06 00:15 39.17136 1.65251 6933 ft 214 kts 210°
2026-05-06 00:15 39.15683 1.64825 6688 ft 220 kts 178°
2026-05-06 00:16 39.14221 1.65489 6441 ft 226 kts 146°
2026-05-06 00:16 39.12988 1.66724 6200 ft 227 kts 144°
2026-05-06 00:16 39.11756 1.67989 5942 ft 226 kts 140°
2026-05-06 00:16 39.10811 1.69590 5679 ft 225 kts 124°
2026-05-06 00:17 39.09738 1.70990 5418 ft 220 kts 150°
2026-05-06 00:17 39.08376 1.71843 5196 ft 217 kts 159°
2026-05-06 00:17 39.06989 1.72535 5053 ft 210 kts 160°
2026-05-06 00:17 39.05634 1.73181 4935 ft 206 kts 167°
2026-05-06 00:18 39.04223 1.73361 4819 ft 203 kts 187°
2026-05-06 00:18 39.02868 1.72914 4690 ft 201 kts 206°
2026-05-06 00:18 39.01720 1.71903 4569 ft 200 kts 226°
2026-05-06 00:18 39.00918 1.70455 4440 ft 200 kts 242°
2026-05-06 00:19 39.00273 1.68878 4311 ft 200 kts 242°
2026-05-06 00:19 38.99629 1.67299 4184 ft 199 kts 242°
2026-05-06 00:19 38.98985 1.65727 4063 ft 198 kts 242°
2026-05-06 00:19 38.98343 1.64161 3932 ft 198 kts 242°
2026-05-06 00:20 38.97710 1.62619 3811 ft 197 kts 242°
2026-05-06 00:20 38.97064 1.61043 3686 ft 197 kts 242°
2026-05-06 00:20 38.96443 1.59531 3558 ft 190 kts 242°
2026-05-06 00:20 38.95836 1.58054 3327 ft 185 kts 242°
2026-05-06 00:21 38.95244 1.56614 3097 ft 180 kts 242°
2026-05-06 00:21 38.94665 1.55207 2851 ft 176 kts 243°
2026-05-06 00:21 38.94099 1.53830 2622 ft 172 kts 243°
2026-05-06 00:21 38.93554 1.52508 2413 ft 163 kts 243°
2026-05-06 00:22 38.93028 1.51230 2189 ft 161 kts 243°
2026-05-06 00:22 38.92507 1.49965 1979 ft 160 kts 243°
2026-05-06 00:22 38.91986 1.48699 1755 ft 160 kts 243°
2026-05-06 00:22 38.91463 1.47431 1537 ft 161 kts 243°
2026-05-06 00:23 38.90938 1.46159 1329 ft 161 kts 243°
2026-05-06 00:23 38.90413 1.44887 1110 ft 161 kts 243°
2026-05-06 00:23 38.89896 1.43635 916 ft 153 kts 243°
2026-05-06 00:23 38.89412 1.42462 699 ft 146 kts 243°
2026-05-06 00:24 38.88940 1.41319 514 ft 144 kts 243°
2026-05-06 00:24 38.88472 1.40186 318 ft 143 kts 243°
2026-05-06 00:24 38.88005 1.39057 120 ft 144 kts 244°
2026-05-06 00:24 38.87555 1.37954 17 ft 130 kts 244°
2026-05-06 00:25 38.87194 1.37091 11 ft 86 kts 242°
2026-05-06 00:25 38.86994 1.36608 7 ft 36 kts 242°
2026-05-06 00:25 38.86912 1.36410 5 ft 24 kts 242°
2026-05-06 00:25 38.86887 1.36291 5 ft 12 kts 293°
2026-05-06 00:26 38.86951 1.36238 7 ft 10 kts 332°
2026-05-06 00:26 38.87013 1.36214 8 ft 9 kts 25°
2026-05-06 00:26 38.87049 1.36288 8 ft 13 kts 61°
2026-05-06 00:26 38.87101 1.36414 8 ft 20 kts 62°
2026-05-06 00:27 38.87174 1.36587 8 ft 22 kts 62°
2026-05-06 00:27 38.87233 1.36737 9 ft 14 kts 63°
2026-05-06 00:27 38.87272 1.36834 9 ft 11 kts 62°
2026-05-06 00:27 38.87321 1.36850 9 ft 8 kts 337°
2026-05-06 00:28 38.87378 1.36813 8 ft 12 kts 334°
2026-05-06 00:28 38.87455 1.36841 8 ft 14 kts 62°
2026-05-06 00:28 38.87490 1.36927 8 ft 10 kts 62°
2026-05-06 00:28 38.87519 1.36998 10 ft 8 kts 62°
2026-05-06 00:29 38.87557 1.37015 8 ft 6 kts 335°
2026-05-06 00:29 38.87581 1.36999 8 ft 2 kts 333°
2026-05-06 00:29 38.87590 1.36993 8 ft 1 kts 333°
2026-05-06 00:29 38.87592 1.36992 8 ft 0 kts 333°